DELTA 1 DEB, 7056

Orbit data source: Space-Track

DELTA 1 DEB, 7056 is space debris in SSO originally from a launch on Tue, 06 Nov 1973 UTC launched from the Air Force Western Test Range (AFWTR). Debris objects in space refer to the collection of defunct objects orbiting the Earth. Examples of debris include non-operational satellites, rocket bodies, and fragments generated from explosions, collisions, or faulty payload assembly.

Loading next visibility...
Identifier
7056, 1973-086AY
Orbit
SSO
Country
Flag of USUS
Related business
Manufacturer
Unknown
Mission
Spacecraft
Bus & Motor
Unknown
Mass
Unknown
Launch date (UTC)
1973-11-06 (53 years ago)
Launch vehicle
Unknown
Launch site
Air Force Western Test Range (AFWTR)
Object type
Payload
Rocket body
Debris
Shape & HBR
Unknown shape, 0.2 m
Radar Cross Section
Medium (>0.1 m² and <1 m²)

Expand to show TLE details & history
Last TLE update: 1 day ago

TLE from 1 day ago
0 DELTA 1 DEB
1 07056U 73086AY  26208.47461023  .00000003  00000-0  44329-3 0  9995
2 07056 102.7298 215.3555 0087961 107.4354  49.4951 12.24187756355053
Epoch: 2026-07-27T11:23Z
TLE epoch observation values (Epoch: 2026-07-27T11:23:26.323Z)
Latitude
21.73557°
Longitude
-75.51997°
Altitude
1,531.551 km
Speed
7.122 km/s
True Right ascension
02h 41m 59s
True Declination
21° 37' 45"
Sunlit
Object was in daylight at epoch
Visualization orbit readout
Latitude
Unknown
Longitude
Unknown
Altitude
Unknown
Speed
Unknown
Apparent Right ascension
Unknown
Apparent Declination
Unknown
Sunlit
N/A
Visualization observer readout
Local Sidereal Time
10:26:31
Azimuth
Unknown
Elevation
Unknown
Doppler factor
Unknown
Orbital elements
Apogee altitude
1,641.923 km
Perigee altitude
1,502.063 km
Semi-major axis
7,950.13 km
Eccentricity
0.0088
Inclination
102.7298°
RAAN
215.3555°
Arg. of periapsis
107.4354°
True anomaly
50.26699°
Mean anomaly
49.4951°
Eccentric anomaly
49.88049°
Mean motion
3.06184 °/min
Orbital period
117.58 mins
BSTAR
0.00044329
Loading maneuver chart data...
Computing Atmospheric mass density...
Loading historical data...
Loading historical data...
Loading historical data...
Loading historical data...
Loading historical data...
Loading historical data...
Loading historical data...

Documentation

Showing up to 5 results
|